Location: Ar Ranvel
(48.3000°N, 4.8833°W)
Time: 16:37:25
(UTC+00:00)

DMSP 5D-2 F13 DEB - Visible Passes

Search period start: 28 May 2024 00:00
Search period end: 07 June 2024 00:00
Orbit: 748 x 786 km, 98.6° (Epoch: 27 May)

Date Brightness Start Highest point End Pass type
(mag) Time Alt. Az. Time Alt. Az. Time Alt. Az.
28 May ? 21:26:41 10° WSW 21:28:24 12° W 21:30:07 10° WNW visible
29 May ? 20:47:42 10° SSW 20:51:45 24° W 20:55:51 10° NW visible
31 May ? 21:16:00 10° WSW 21:18:42 14° W 21:21:26 10° NW visible
03 Jun ? 21:05:33 10° SW 21:08:54 18° W 21:12:18 10° NW visible
05 Jun ? 21:35:37 10° W 21:35:48 10° W 21:35:58 10° W visible
06 Jun ? 20:55:09 10° SW 20:58:59 22° W 21:02:53 10° NW visible
